User: anonymous   Login
Location: Étouvelles
(49.5207°N, 3.5808°E)
Time: 18:26:11
(UTC+00:00)
Language:

Cosmos 1340 - Orbit

View from above orbital plane
View from above orbital plane
View from above satellite
View from above satellite

Ground track
Ground track

The orbit data is extracted from the following two-line orbital elements,

1 13067U 82013A   23150.17480696  .00009724  00000-0  33481-3 0  9997
2 13067  81.1810 112.1746 0005280  65.0764 295.1021 15.29905506258246
Epoch (UTC): 30 May 2023 04:11:43
Eccentricity: 0.0005280
inclination: 81.1810°
perigee height: 472 km
apogee height: 480 km
right ascension of ascending node: 112.1746°
argument of perigee: 65.0764°
revolutions per day: 15.29905506
mean anomaly at epoch: 295.1021°
orbit number at epoch: 25824

The dashed part of the orbit path shows where the satellite is in the earth's shadow,  

DLR